User: anonymous   Login
Location: Mohawk View
(42.7837°N, 73.7885°W)
Time: 21:17:26
(UTC+00:00)
Language:

Meteor 1-24 Rocket - Orbit

View from above orbital plane
View from above orbital plane
View from above satellite
View from above satellite

Ground track
Ground track

The orbit data is extracted from the following two-line orbital elements,

1 08800U 76032B   21269.35284172 -.00000071  00000-0 -46024-4 0  9996
2 08800  81.2498 137.5180 0095205  82.0547 279.1415 14.10168920338142
Epoch (UTC): 26 September 2021 08:28:05
Eccentricity: 0.0095205
inclination: 81.2498°
perigee height: 790 km
apogee height: 927 km
right ascension of ascending node: 137.5180°
argument of perigee: 82.0547°
revolutions per day: 14.10168920
mean anomaly at epoch: 279.1415°
orbit number at epoch: 33814

The dashed part of the orbit path shows where the satellite is in the earth's shadow,  

DLR